2016-01-12 00:01:53 r, 20.64m,0000000001Hz,0000985788c,0000002.139s,-009.7C,00002191
2016-01-12 00:11:53 r, 20.63m,0000000001Hz,0000978037c,0000002.122s,-009.7C,00002191
2016-01-12 00:21:54 r, 20.63m,0000000001Hz,0000972610c,0000002.111s,-009.7C,00002191
2016-01-12 00:31:54 r, 20.62m,0000000001Hz,0000968669c,0000002.102s,-009.7C,00002191
2016-01-12 00:41:53 r, 20.61m,0000000001Hz,0000958105c,0000002.079s,-009.7C,00002191
2016-01-12 00:51:54 r, 20.61m,0000000000Hz,0000952105c,0000002.066s,-009.7C,00002191
2016-01-12 01:01:53 r, 20.60m,0000000001Hz,0000946722c,0000002.055s,-009.7C,00002191
2016-01-12 01:11:54 r, 20.55m,0000000001Hz,0000905373c,0000001.965s,-010.0C,00002191
2016-01-12 01:21:53 r, 20.57m,0000000001Hz,0000919529c,0000001.996s,-010.4C,00002191
2016-01-12 01:31:54 r, 20.56m,0000000000Hz,0000911816c,0000001.979s,-010.4C,00002191
2016-01-12 01:41:54 r, 20.53m,0000000001Hz,0000886805c,0000001.924s,-010.7C,00002191
2016-01-12 01:51:54 r, 20.36m,0000000000Hz,0000759153c,0000001.647s,-010.7C,00002191
2016-01-12 02:01:54 r, 20.29m,0000000001Hz,0000716242c,0000001.554s,-010.7C,00002191
2016-01-12 02:11:54 r, 20.31m,0000000001Hz,0000723644c,0000001.570s,-010.7C,00002191
2016-01-12 02:21:53 r, 20.34m,0000000000Hz,0000743192c,0000001.613s,-010.7C,00002191
2016-01-12 02:31:53 r, 20.43m,0000000001Hz,0000808180c,0000001.754s,-010.4C,00002191
2016-01-12 02:41:54 r, 20.51m,0000000000Hz,0000870874c,0000001.890s,-010.4C,00002191
2016-01-12 02:51:54 r, 20.57m,0000000001Hz,0000920553c,0000001.998s,-010.0C,00002191
2016-01-12 03:01:54 r, 20.59m,0000000000Hz,0000940599c,0000002.041s,-010.0C,00002191
2016-01-12 03:11:54 r, 20.61m,0000000001Hz,0000957897c,0000002.079s,-009.7C,00002191
2016-01-12 03:21:54 r, 20.28m,0000000001Hz,0000707367c,0000001.535s,-009.7C,00002191
2016-01-12 03:31:54 r, 20.25m,0000000000Hz,0000692114c,0000001.502s,-009.7C,00002191
2016-01-12 03:41:54 r, 20.43m,0000000001Hz,0000807195c,0000001.752s,-009.4C,00002191
2016-01-12 03:51:53 r, 20.40m,0000000000Hz,0000791777c,0000001.718s,-009.4C,00002191
2016-01-12 04:01:53 r, 20.40m,0000000001Hz,0000784430c,0000001.702s,-009.4C,00002191
2016-01-12 04:11:54 r, 20.58m,0000000000Hz,0000928466c,0000002.015s,-009.4C,00002191
2016-01-12 04:21:53 r, 20.34m,0000000000Hz,0000745593c,0000001.618s,-009.7C,00002191
2016-01-12 04:31:53 r, 20.21m,0000000000Hz,0000661580c,0000001.436s,-009.7C,00002191
2016-01-12 04:41:54 r, 20.12m,0000000001Hz,0000607601c,0000001.319s,-009.7C,00002191
2016-01-12 04:51:54 r, 20.10m,0000000001Hz,0000600019c,0000001.302s,-009.4C,00002191
2016-01-12 05:01:53 r, 20.54m,0000000000Hz,0000895052c,0000001.942s,-009.1C,00002191
2016-01-12 05:11:55 r, 19.92m,0000000001Hz,0000511658c,0000001.110s,-008.8C,00002191
2016-01-12 05:21:53 r, 20.11m,0000000001Hz,0000602968c,0000001.309s,-008.4C,00002191
2016-01-12 05:31:54 r, 19.95m,0000000001Hz,0000521308c,0000001.131s,-008.1C,00002191
2016-01-12 05:41:55 r, 20.03m,0000000001Hz,0000554756c,0000001.204s,-007.8C,00002191
2016-01-12 05:51:53 r, 20.09m,0000000000Hz,0000587278c,0000001.274s,-007.8C,00002191
2016-01-12 06:01:54 r, 20.50m,0000000000Hz,0000856640c,0000001.859s,-007.8C,00002191
2016-01-12 06:11:53 r, 20.57m,0000000001Hz,0000912724c,0000001.981s,-007.8C,00002191
2016-01-12 06:21:53 r, 20.65m,0000000000Hz,0000981938c,0000002.131s,-008.1C,00002191
2016-01-12 06:31:54 r, 20.62m,0000000000Hz,0000968497c,0000002.102s,-008.8C,00002191
2016-01-12 06:41:55 r, 20.53m,0000000001Hz,0000890693c,0000001.933s,-009.1C,00002191
2016-01-12 06:51:54 r, 20.36m,0000000000Hz,0000758169c,0000001.645s,-009.4C,00002191
2016-01-12 07:01:54 r, 19.86m,0000000001Hz,0000482890c,0000001.048s,-009.7C,00002191
2016-01-12 07:11:54 r, 18.84m,0000000002Hz,0000188981c,0000000.410s,-010.0C,00002191
2016-01-12 07:21:54 r, 17.42m,0000000009Hz,0000051105c,0000000.111s,-010.0C,00002191
2016-01-12 07:31:54 r, 15.81m,0000000039Hz,0000011582c,0000000.025s,-010.4C,00002191
2016-01-12 07:41:54 r, 14.00m,0000000213Hz,0000000000c,0000000.000s,-010.7C,00002191
2016-01-12 07:51:53 r, 12.11m,0000001212Hz,0000000000c,0000000.000s,-010.7C,00002191
2016-01-12 08:01:54 r, 10.34m,0000006193Hz,0000000000c,0000000.000s,-011.0C,00002191
2016-01-12 08:11:54 r, 08.92m,0000022792Hz,0000000000c,0000000.000s,-011.0C,00002191
2016-01-12 08:21:53 r, 07.89m,0000058847Hz,0000000000c,0000000.000s,-010.7C,00002191
2016-01-12 08:31:53 r, 07.20m,0000111652Hz,0000000000c,0000000.000s,-010.0C,00002191
2016-01-12 08:41:53 r, 06.59m,0000194828Hz,0000000000c,0000000.000s,-009.7C,00002191
2016-01-12 08:51:54 r, 06.20m,0000280234Hz,0000000000c,0000000.000s,-009.1C,00002191
2016-01-12 09:01:54 r, 05.85m,0000386477Hz,0000000000c,0000000.000s,-008.4C,00002191
2016-01-12 09:11:55 r, 00.00m,0000490534Hz,0000000000c,0000000.000s,-008.1C,00002191
2016-01-12 09:21:53 r, 00.00m,0000598232Hz,0000000000c,0000000.000s,-007.8C,00002191
2016-01-12 09:31:53 r, 00.00m,0000598069Hz,0000000000c,0000000.000s,-007.5C,00002191
2016-01-12 09:41:54 r, 00.00m,0000598090Hz,0000000000c,0000000.000s,-007.1C,00002191
2016-01-12 09:51:53 r, 00.00m,0000597932Hz,0000000000c,0000000.000s,-006.5C,00002191
2016-01-12 10:01:53 r, 00.00m,0000597966Hz,0000000000c,0000000.000s,-005.2C,00002191
2016-01-12 10:11:54 r, 00.00m,0000597928Hz,0000000000c,0000000.000s,-004.6C,00002191
2016-01-12 10:21:54 r, 00.00m,0000597859Hz,0000000000c,0000000.000s,-003.0C,00002191
2016-01-12 10:31:54 r, 00.00m,0000597734Hz,0000000000c,0000000.000s,-002.0C,00002191
2016-01-12 10:41:53 r, 00.00m,0000597647Hz,0000000000c,0000000.000s,-001.7C,00002191
2016-01-12 10:51:54 r, 00.00m,0000597660Hz,0000000000c,0000000.000s,-001.7C,00002191
2016-01-12 11:01:54 r, 00.00m,0000597701Hz,0000000000c,0000000.000s,-001.7C,00002191
2016-01-12 11:11:55 r, 00.00m,0000597603Hz,0000000000c,0000000.000s,-001.3C,00002191
2016-01-12 11:21:53 r, 00.00m,0000597581Hz,0000000000c,0000000.000s,-001.0C,00002191
2016-01-12 11:31:53 r, 00.00m,0000597463Hz,0000000000c,0000000.000s,-001.0C,00002191
2016-01-12 11:41:55 r, 00.00m,0000597514Hz,0000000000c,0000000.000s,-000.4C,00002191
2016-01-12 11:51:53 r, 00.00m,0000597543Hz,0000000000c,0000000.000s, 000.9C,00002191
2016-01-12 12:01:53 r, 00.00m,0000597443Hz,0000000000c,0000000.000s, 000.9C,00002191
2016-01-12 12:11:53 r, 00.00m,0000597489Hz,0000000000c,0000000.000s, 000.6C,00002191
2016-01-12 12:21:53 r, 00.00m,0000597703Hz,0000000000c,0000000.000s,-000.7C,00002191
2016-01-12 12:31:53 r, 00.00m,0000597733Hz,0000000000c,0000000.000s,-003.3C,00002191
2016-01-12 12:41:54 r, 00.00m,0000597815Hz,0000000000c,0000000.000s,-004.6C,00002191
2016-01-12 12:51:53 r, 00.00m,0000597999Hz,0000000000c,0000000.000s,-005.2C,00002191
2016-01-12 13:01:53 r, 00.00m,0000597914Hz,0000000000c,0000000.000s,-005.5C,00002191
2016-01-12 13:11:53 r, 00.00m,0000597899Hz,0000000000c,0000000.000s,-005.5C,00002191
2016-01-12 13:21:54 r, 00.00m,0000597968Hz,0000000000c,0000000.000s,-005.5C,00002191
2016-01-12 13:31:53 r, 00.00m,0000598022Hz,0000000000c,0000000.000s,-005.9C,00002191
2016-01-12 13:41:53 r, 00.00m,0000597872Hz,0000000000c,0000000.000s,-006.2C,00002191
2016-01-12 13:51:53 r, 00.00m,0000597895Hz,0000000000c,0000000.000s,-006.2C,00002191
2016-01-12 14:01:54 r, 00.00m,0000598125Hz,0000000000c,0000000.000s,-006.2C,00002191
2016-01-12 14:11:53 r, 00.00m,0000598004Hz,0000000000c,0000000.000s,-006.2C,00002191
2016-01-12 14:21:53 r, 00.00m,0000598020Hz,0000000000c,0000000.000s,-006.5C,00002191
2016-01-12 14:31:54 r, 00.00m,0000598071Hz,0000000000c,0000000.000s,-006.2C,00002191
2016-01-12 14:41:53 r, 00.00m,0000598196Hz,0000000000c,0000000.000s,-006.5C,00002191
2016-01-12 14:51:53 r, 00.00m,0000598081Hz,0000000000c,0000000.000s,-006.5C,00002191
2016-01-12 15:01:53 r, 00.00m,0000598139Hz,0000000000c,0000000.000s,-006.2C,00002191
2016-01-12 15:11:53 r, 00.00m,0000598178Hz,0000000000c,0000000.000s,-006.2C,00002191
2016-01-12 15:21:53 r, 00.00m,0000598155Hz,0000000000c,0000000.000s,-006.2C,00002191
2016-01-12 15:31:54 r, 00.00m,0000598096Hz,0000000000c,0000000.000s,-006.5C,00002191
2016-01-12 15:41:53 r, 00.00m,0000598111Hz,0000000000c,0000000.000s,-006.2C,00002191
2016-01-12 15:51:53 r, 00.00m,0000598127Hz,0000000000c,0000000.000s,-005.2C,00002191
2016-01-12 16:01:53 r, 00.00m,0000532417Hz,0000000000c,0000000.000s,-004.2C,00002191
2016-01-12 16:11:53 r, 00.00m,0000407202Hz,0000000000c,0000000.000s,-004.2C,00002191
2016-01-12 16:21:53 r, 06.17m,0000288878Hz,0000000000c,0000000.000s,-004.2C,00002191
2016-01-12 16:31:53 r, 06.58m,0000196649Hz,0000000000c,0000000.000s,-004.9C,00002191
2016-01-12 16:41:53 r, 07.17m,0000114257Hz,0000000000c,0000000.000s,-005.9C,00002191
2016-01-12 16:51:53 r, 07.93m,0000056786Hz,0000000000c,0000000.000s,-006.5C,00002191
2016-01-12 17:01:53 r, 08.96m,0000022119Hz,0000000000c,0000000.000s,-007.5C,00002191
2016-01-12 17:11:53 r, 10.35m,0000006120Hz,0000000000c,0000000.000s,-008.1C,00002191
2016-01-12 17:21:54 r, 12.13m,0000001189Hz,0000000000c,0000000.000s,-008.8C,00002191
2016-01-12 17:31:53 r, 14.05m,0000000202Hz,0000000000c,0000000.000s,-008.8C,00002191
2016-01-12 17:41:54 r, 15.86m,0000000039Hz,0000012140c,0000000.026s,-009.1C,00002191
2016-01-12 17:51:53 r, 17.47m,0000000009Hz,0000053745c,0000000.117s,-009.1C,00002191
2016-01-12 18:01:53 r, 18.78m,0000000002Hz,0000177603c,0000000.385s,-009.1C,00002191
2016-01-12 18:11:53 r, 19.69m,0000000002Hz,0000411901c,0000000.894s,-009.4C,00002191
2016-01-12 18:21:55 r, 20.12m,0000000000Hz,0000607622c,0000001.319s,-009.4C,00002191
2016-01-12 18:31:53 r, 20.25m,0000000001Hz,0000688233c,0000001.494s,-009.4C,00002191
2016-01-12 18:41:53 r, 20.28m,0000000000Hz,0000706427c,0000001.533s,-009.4C,00002191
2016-01-12 18:51:53 r, 20.27m,0000000000Hz,0000696898c,0000001.512s,-009.7C,00002191
2016-01-12 19:01:53 r, 20.27m,0000000001Hz,0000697018c,0000001.513s,-009.7C,00002191
2016-01-12 19:11:53 r, 20.24m,0000000001Hz,0000681679c,0000001.479s,-009.7C,00002191
2016-01-12 19:21:56 r, 20.29m,0000000000Hz,0000714989c,0000001.552s,-009.7C,00002191
2016-01-12 19:31:53 r, 20.19m,0000000001Hz,0000651873c,0000001.415s,-009.7C,00002191
2016-01-12 19:41:54 r, 19.57m,0000000002Hz,0000366709c,0000000.796s,-009.7C,00002191
2016-01-12 19:51:53 r, 19.80m,0000000001Hz,0000457021c,0000000.992s,-009.7C,00002191
2016-01-12 20:01:53 r, 20.11m,0000000001Hz,0000605683c,0000001.314s,-009.4C,00002191
2016-01-12 20:11:53 r, 20.27m,0000000000Hz,0000698058c,0000001.515s,-009.1C,00002191
2016-01-12 20:21:54 r, 20.42m,0000000000Hz,0000802357c,0000001.741s,-009.1C,00002191
2016-01-12 20:31:53 r, 20.42m,0000000000Hz,0000802771c,0000001.742s,-009.4C,00002191
2016-01-12 20:41:53 r, 20.38m,0000000001Hz,0000774412c,0000001.681s,-009.4C,00002191
2016-01-12 20:51:53 r, 20.17m,0000000000Hz,0000638331c,0000001.385s,-009.4C,00002191
2016-01-12 21:01:53 r, 20.00m,0000000001Hz,0000548851c,0000001.191s,-009.4C,00002191
2016-01-12 21:11:53 r, 19.43m,0000000001Hz,0000324568c,0000000.704s,-009.1C,00002191
2016-01-12 21:21:55 r, 19.27m,0000000001Hz,0000279442c,0000000.606s,-009.1C,00002191
2016-01-12 21:31:53 r, 19.17m,0000000002Hz,0000254419c,0000000.552s,-008.4C,00002191
2016-01-12 21:41:53 r, 18.82m,0000000002Hz,0000183527c,0000000.398s,-008.1C,00002191
2016-01-12 21:51:53 r, 18.41m,0000000004Hz,0000125722c,0000000.273s,-007.8C,00002191
2016-01-12 22:01:53 r, 18.71m,0000000003Hz,0000165117c,0000000.358s,-007.5C,00002191
2016-01-12 22:11:53 r, 19.34m,0000000001Hz,0000296701c,0000000.644s,-007.1C,00002191
2016-01-12 22:21:54 r, 19.08m,0000000002Hz,0000233242c,0000000.506s,-007.1C,00002191
2016-01-12 22:31:53 r, 18.83m,0000000002Hz,0000186340c,0000000.404s,-006.8C,00002191
2016-01-12 22:41:54 r, 18.74m,0000000003Hz,0000171860c,0000000.373s,-006.8C,00002191
2016-01-12 22:51:54 r, 18.97m,0000000002Hz,0000210151c,0000000.456s,-006.5C,00002191
2016-01-12 23:01:53 r, 19.08m,0000000002Hz,0000234185c,0000000.508s,-006.5C,00002191
2016-01-12 23:11:53 r, 19.31m,0000000002Hz,0000288994c,0000000.627s,-006.2C,00002191
2016-01-12 23:21:53 r, 19.49m,0000000002Hz,0000340902c,0000000.740s,-006.2C,00002191
2016-01-12 23:31:53 r, 20.03m,0000000001Hz,0000562665c,0000001.221s,-006.2C,00002191
2016-01-12 23:41:54 r, 19.83m,0000000001Hz,0000466449c,0000001.012s,-006.2C,00002191
2016-01-12 23:51:53 r, 19.53m,0000000001Hz,0000353268c,0000000.767s,-006.5C,00002191
